Regional Weather Roundup
Issued by NWS

Home | Current Version | Previous Version | Graphics & Text | Print | Product List | Glossary On
Versions: 1 2 3 4 5 6 7 8 9 10 11 12 13 14 15 16 17 18 19 20 21 22 23 24 25 26 27 28 29 30 31 32 33 34 35 36 37 38 39 40 41 42 43 44 45 46 47 48 49 50
000
ASUS43 KFSD 272010
RWRSD

WEATHER ROUNDUP FOR SOUTH DAKOTA
NATIONAL WEATHER SERVICE SIOUX FALLS SD
300 PM CDT WED MAY 27 2015

NOTE: "FAIR" INDICATES FEW OR NO CLOUDS BELOW 12,000 FEET WITH NO
SIGNIFICANT WEATHER AND/OR OBSTRUCTIONS TO VISIBILITY.


SDZ001>005-009-010-012>017-272100-
NORTHWEST AND NORTH CENTRAL SOUTH DAKOTA

CITY           SKY/WX    TMP DP  RH WIND       PRES   REMARKS
BUFFALO          N/A     74  54  49 S13       29.86F
FAITH            N/A     72  52  49 S18G28    29.94F
MOBRIDGE       PTSUNNY   81  48  31 S13       29.94F
$$

SDZ012>016-024>037-041>051-057-063-072>074-272100-
SOUTHWEST AND SOUTH CENTRAL SOUTH DAKOTA

CITY           SKY/WX    TMP DP  RH WIND       PRES   REMARKS
RAPID CTY ARPT CLOUDY    66  56  70 S6        29.96R
PIERRE         MOSUNNY   78  50  37 S20G28    29.97F
CUSTER         PTSUNNY   63  46  54 MISG      30.03S
ELLSWORTH AFB  LGT RAIN  66  57  72 S6        29.96
PHILIP         PTSUNNY   75  56  51 SE20G28   29.95F
PINE RIDGE     MOSUNNY   73  54  51 S14       29.97F
SPEARFISH      FAIR      59  57  94 SE10      29.99F
WINNER         MOCLDY    81  46  29 S20G30    30.02F
$$

SDZ004>011-016>023-039-040-272100-
NORTHEAST SOUTH DAKOTA

CITY           SKY/WX    TMP DP  RH WIND       PRES   REMARKS
ABERDEEN       MOSUNNY   83  50  31 S7        29.97F
WATERTOWN      MOSUNNY   81  47  30 CALM      30.01S
BROOKINGS      MOSUNNY   81  48  32 N5        30.01S
SISSETON         N/A     83  45  26 VRB3      29.97S
$$

SDZ017-020-022-023-036>040-048>070-272100-
SOUTHEAST SOUTH DAKOTA

CITY           SKY/WX    TMP DP  RH WIND       PRES   REMARKS
SIOUX FALLS    MOSUNNY   82  52  35 SW8       30.01S
HURON          PTSUNNY   80  48  32 S8        29.99S
CHAMBERLAIN    CLOUDY    78  50  38 S12G21    30.02S
MITCHELL       SUNNY     81  48  31 SW6       30.01S
YANKTON        SUNNY     81  52  36 W3        30.01S
$$

ABBREVIATIONS USED IN REMARKS
   TC - TEMPERATURE IN CELSIUS
  WCI - WIND CHILL INDEX
   HX - HEAT INDEX
  VSB - VISIBILITY



USA.gov is the U.S. government's official web portal to all federal, state and local government web resources and services.